Time,TemperatureF,DewpointF,PressureIn,WindDirection,WindDirectionDegrees,WindSpeedMPH,WindSpeedGustMPH,Humidity,HourlyPrecipIn,Conditions,Clouds,dailyrainin,SoftwareType,DateUTC
2013-06-30 00:01:00,60.8,35.1,29.03,North,353,3.1,3.1,38,0.00,,,0.00,VWS V13.01,2013-06-30 05:01:00,
2013-06-30 00:07:00,61.0,35.2,29.03,NNE,20,0.0,0.0,38,0.00,,,0.00,VWS V13.01,2013-06-30 05:07:00,
2013-06-30 00:12:00,61.2,36.0,29.06,North,3,0.0,0.0,39,0.00,,,0.00,VWS V13.01,2013-06-30 05:12:00,
2013-06-30 00:17:00,61.2,35.4,29.06,North,0,3.1,3.1,38,0.00,,,0.00,VWS V13.01,2013-06-30 05:17:00,
2013-06-30 00:22:00,61.3,35.5,29.06,NNW,344,0.0,0.0,38,0.00,,,0.00,VWS V13.01,2013-06-30 05:22:00,
2013-06-30 00:27:00,61.3,34.9,29.06,NNE,21,2.7,2.7,37,0.00,,,0.00,VWS V13.01,2013-06-30 05:27:00,
2013-06-30 00:32:00,61.5,35.0,29.06,NNE,25,0.0,0.0,37,0.00,,,0.00,VWS V13.01,2013-06-30 05:32:00,
2013-06-30 00:37:00,61.5,35.0,29.06,NNE,15,0.0,2.2,37,0.00,,,0.00,VWS V13.01,2013-06-30 05:37:00,
2013-06-30 00:42:00,61.5,35.0,29.03,North,8,0.0,0.0,37,0.00,,,0.00,VWS V13.01,2013-06-30 05:42:00,
2013-06-30 00:47:00,61.3,34.9,29.03,NNE,28,0.0,0.0,37,0.00,,,0.00,VWS V13.01,2013-06-30 05:47:00,
2013-06-30 00:52:00,61.2,34.7,29.03,North,0,0.0,0.0,37,0.00,,,0.00,VWS V13.01,2013-06-30 05:52:00,
2013-06-30 00:57:00,61.0,34.5,29.06,North,9,0.0,0.0,37,0.00,,,0.00,VWS V13.01,2013-06-30 05:57:00,
2013-06-30 01:02:00,61.0,34.5,29.06,NNE,19,0.0,0.0,37,0.00,,,0.00,VWS V13.01,2013-06-30 06:02:00,
2013-06-30 01:07:00,60.8,34.4,29.06,NNW,346,0.0,2.2,37,0.00,,,0.00,VWS V13.01,2013-06-30 06:07:00,
2013-06-30 01:12:00,60.6,34.2,29.06,North,0,0.0,0.0,37,0.00,,,0.00,VWS V13.01,2013-06-30 06:12:00,
2013-06-30 01:17:00,60.3,34.6,29.06,North,4,0.0,0.0,38,0.00,,,0.00,VWS V13.01,2013-06-30 06:17:00,
2013-06-30 01:22:00,60.1,34.4,29.06,NNW,334,2.7,3.1,38,0.00,,,0.00,VWS V13.01,2013-06-30 06:22:00,
2013-06-30 01:27:00,60.1,34.4,29.06,North,2,0.0,2.2,38,0.00,,,0.00,VWS V13.01,2013-06-30 06:27:00,
2013-06-30 01:32:00,59.9,34.9,29.06,North,2,0.0,0.0,39,0.00,,,0.00,VWS V13.01,2013-06-30 06:32:00,
2013-06-30 01:37:00,59.5,34.6,29.06,North,2,0.0,0.0,39,0.00,,,0.00,VWS V13.01,2013-06-30 06:37:00,
2013-06-30 01:42:00,59.0,34.1,29.06,North,2,0.0,0.0,39,0.00,,,0.00,VWS V13.01,2013-06-30 06:42:00,
2013-06-30 01:47:00,58.6,35.0,29.06,North,2,0.0,0.0,41,0.00,,,0.00,VWS V13.01,2013-06-30 06:47:00,
2013-06-30 01:52:00,58.3,35.9,29.06,North,2,0.0,0.0,43,0.00,,,0.00,VWS V13.01,2013-06-30 06:52:00,
2013-06-30 01:57:00,58.1,36.9,29.06,North,2,0.0,0.0,45,0.00,,,0.00,VWS V13.01,2013-06-30 06:57:00,
2013-06-30 02:02:00,57.9,36.7,29.06,North,2,0.0,0.0,45,0.00,,,0.00,VWS V13.01,2013-06-30 07:02:00,
2013-06-30 02:07:00,57.7,37.7,29.06,North,2,0.0,0.0,47,0.00,,,0.00,VWS V13.01,2013-06-30 07:07:00,
2013-06-30 02:12:00,57.6,37.5,29.06,North,2,0.0,0.0,47,0.00,,,0.00,VWS V13.01,2013-06-30 07:12:00,
2013-06-30 02:17:00,57.2,37.2,29.06,North,2,0.0,0.0,47,0.00,,,0.00,VWS V13.01,2013-06-30 07:17:00,
2013-06-30 02:22:00,57.2,37.7,29.06,North,2,0.0,0.0,48,0.00,,,0.00,VWS V13.01,2013-06-30 07:22:00,
2013-06-30 02:27:00,57.0,38.1,29.06,North,2,0.0,0.0,49,0.00,,,0.00,VWS V13.01,2013-06-30 07:27:00,
2013-06-30 02:32:00,57.0,38.1,29.06,North,2,0.0,0.0,49,0.00,,,0.00,VWS V13.01,2013-06-30 07:32:00,
2013-06-30 02:37:00,57.0,39.1,29.06,North,2,0.0,0.0,51,0.00,,,0.00,VWS V13.01,2013-06-30 07:37:00,
2013-06-30 02:42:00,56.8,39.4,29.06,North,2,0.0,0.0,52,0.00,,,0.00,VWS V13.01,2013-06-30 07:42:00,
2013-06-30 02:47:00,56.8,39.4,29.06,North,2,0.0,0.0,52,0.00,,,0.00,VWS V13.01,2013-06-30 07:47:00,
2013-06-30 02:52:00,56.8,39.9,29.06,North,2,0.0,0.0,53,0.00,,,0.00,VWS V13.01,2013-06-30 07:52:00,
2013-06-30 02:57:00,56.8,40.9,29.06,North,2,0.0,0.0,55,0.00,,,0.00,VWS V13.01,2013-06-30 07:57:00,
2013-06-30 03:02:00,56.7,41.6,29.06,North,2,0.0,0.0,57,0.00,,,0.00,VWS V13.01,2013-06-30 08:02:00,
2013-06-30 03:07:00,56.8,41.8,29.06,North,2,0.0,0.0,57,0.00,,,0.00,VWS V13.01,2013-06-30 08:07:00,
2013-06-30 03:12:00,57.0,43.3,29.06,WNW,285,0.0,0.0,60,0.00,,,0.00,VWS V13.01,2013-06-30 08:12:00,
2013-06-30 03:17:00,57.2,43.5,29.06,WNW,285,0.0,0.0,60,0.00,,,0.00,VWS V13.01,2013-06-30 08:17:00,
2013-06-30 03:22:00,57.0,43.3,29.06,WNW,285,0.0,0.0,60,0.00,,,0.00,VWS V13.01,2013-06-30 08:22:00,
2013-06-30 03:27:00,57.2,43.5,29.06,WNW,285,0.0,0.0,60,0.00,,,0.00,VWS V13.01,2013-06-30 08:27:00,
2013-06-30 03:32:00,57.2,43.5,29.06,WNW,285,0.0,0.0,60,0.00,,,0.00,VWS V13.01,2013-06-30 08:32:00,
2013-06-30 03:37:00,57.0,42.8,29.06,WNW,285,0.0,0.0,59,0.00,,,0.00,VWS V13.01,2013-06-30 08:37:00,
2013-06-30 03:42:00,57.0,42.8,29.06,WNW,285,0.0,0.0,59,0.00,,,0.00,VWS V13.01,2013-06-30 08:42:00,
2013-06-30 03:47:00,56.8,43.1,29.06,WNW,285,0.0,0.0,60,0.00,,,0.00,VWS V13.01,2013-06-30 08:47:00,
2013-06-30 03:52:00,56.8,43.1,29.06,WNW,285,0.0,0.0,60,0.00,,,0.00,VWS V13.01,2013-06-30 08:52:00,
2013-06-30 03:57:00,56.7,43.4,29.06,WNW,285,0.0,0.0,61,0.00,,,0.00,VWS V13.01,2013-06-30 08:57:00,
2013-06-30 04:02:00,56.7,44.2,29.06,WNW,287,0.0,0.0,63,0.00,,,0.00,VWS V13.01,2013-06-30 09:02:00,
2013-06-30 04:07:00,56.7,44.6,29.06,NW,324,0.0,0.0,64,0.00,,,0.00,VWS V13.01,2013-06-30 09:07:00,
2013-06-30 04:12:00,56.7,45.4,29.09,WNW,298,0.0,0.0,66,0.00,,,0.00,VWS V13.01,2013-06-30 09:12:00,
2013-06-30 04:17:00,56.7,45.4,29.09,NW,316,0.0,0.0,66,0.00,,,0.00,VWS V13.01,2013-06-30 09:17:00,
2013-06-30 04:22:00,56.7,45.4,29.09,WNW,300,0.0,0.0,66,0.00,,,0.00,VWS V13.01,2013-06-30 09:22:00,
2013-06-30 04:27:00,56.7,45.4,29.09,NNW,333,0.0,0.0,66,0.00,,,0.00,VWS V13.01,2013-06-30 09:27:00,
2013-06-30 04:32:00,56.5,45.3,29.09,NNW,333,0.0,0.0,66,0.00,,,0.00,VWS V13.01,2013-06-30 09:32:00,
2013-06-30 04:37:00,56.3,45.1,29.09,North,357,0.0,0.0,66,0.00,,,0.00,VWS V13.01,2013-06-30 09:37:00,
2013-06-30 04:42:00,56.3,45.1,29.09,North,357,0.0,0.0,66,0.00,,,0.00,VWS V13.01,2013-06-30 09:42:00,
2013-06-30 04:47:00,56.5,46.1,29.09,North,357,0.0,0.0,68,0.00,,,0.00,VWS V13.01,2013-06-30 09:47:00,
2013-06-30 04:52:00,56.5,46.5,29.09,WNW,297,0.0,0.0,69,0.00,,,0.00,VWS V13.01,2013-06-30 09:52:00,
2013-06-30 04:57:00,56.3,46.7,29.09,WNW,297,0.0,0.0,70,0.00,,,0.00,VWS V13.01,2013-06-30 09:57:00,
2013-06-30 05:02:00,56.1,46.1,29.09,WNW,297,0.0,0.0,69,0.00,,,0.00,VWS V13.01,2013-06-30 10:02:00,
2013-06-30 05:07:00,55.8,45.8,29.09,WNW,297,0.0,0.0,69,0.00,,,0.00,VWS V13.01,2013-06-30 10:07:00,
2013-06-30 05:12:00,55.6,45.6,29.06,WNW,297,0.0,0.0,69,0.00,,,0.00,VWS V13.01,2013-06-30 10:12:00,
2013-06-30 05:17:00,55.4,45.4,29.06,WNW,297,0.0,0.0,69,0.00,,,0.00,VWS V13.01,2013-06-30 10:17:00,
2013-06-30 05:22:00,55.4,45.4,29.06,WNW,297,0.0,0.0,69,0.00,,,0.00,VWS V13.01,2013-06-30 10:22:00,
2013-06-30 05:27:00,55.4,45.4,29.06,WNW,297,0.0,0.0,69,0.00,,,0.00,VWS V13.01,2013-06-30 10:27:00,
2013-06-30 05:32:00,55.4,45.8,29.06,WNW,297,0.0,0.0,70,0.00,,,0.00,VWS V13.01,2013-06-30 10:32:00,
2013-06-30 05:37:00,55.2,46.0,29.06,WNW,297,0.0,0.0,71,0.00,,,0.00,VWS V13.01,2013-06-30 10:37:00,
2013-06-30 05:42:00,55.0,46.2,29.06,WNW,297,0.0,0.0,72,0.00,,,0.00,VWS V13.01,2013-06-30 10:42:00,
2013-06-30 05:47:00,54.9,46.0,29.06,WNW,297,0.0,0.0,72,0.00,,,0.00,VWS V13.01,2013-06-30 10:47:00,
2013-06-30 05:52:00,54.9,46.0,29.06,WNW,297,0.0,0.0,72,0.00,,,0.00,VWS V13.01,2013-06-30 10:52:00,
2013-06-30 05:57:00,54.9,46.0,29.09,WNW,297,0.0,0.0,72,0.00,,,0.00,VWS V13.01,2013-06-30 10:57:00,
2013-06-30 06:02:00,54.9,46.4,29.09,WNW,297,0.0,0.0,73,0.00,,,0.00,VWS V13.01,2013-06-30 11:02:00,
2013-06-30 06:07:00,55.0,46.5,29.09,WNW,297,0.0,0.0,73,0.00,,,0.00,VWS V13.01,2013-06-30 11:07:00,
2013-06-30 06:12:00,55.0,46.5,29.09,WNW,297,0.0,0.0,73,0.00,,,0.00,VWS V13.01,2013-06-30 11:12:00,
2013-06-30 06:17:00,55.2,47.1,29.09,WNW,297,0.0,0.0,74,0.00,,,0.00,VWS V13.01,2013-06-30 11:17:00,
2013-06-30 06:22:00,55.2,47.1,29.09,WNW,297,0.0,0.0,74,0.00,,,0.00,VWS V13.01,2013-06-30 11:22:00,
2013-06-30 06:27:00,55.2,47.1,29.09,WNW,297,0.0,0.0,74,0.00,,,0.00,VWS V13.01,2013-06-30 11:27:00,
2013-06-30 06:32:00,55.2,47.1,29.09,WNW,297,0.0,0.0,74,0.00,,,0.00,VWS V13.01,2013-06-30 11:32:00,
2013-06-30 06:37:00,55.2,47.1,29.09,WNW,297,0.0,0.0,74,0.00,,,0.00,VWS V13.01,2013-06-30 11:37:00,
2013-06-30 06:42:00,55.2,47.1,29.09,WNW,297,0.0,0.0,74,0.00,,,0.00,VWS V13.01,2013-06-30 11:42:00,
2013-06-30 06:47:00,55.2,47.5,29.09,WNW,297,0.0,0.0,75,0.00,,,0.00,VWS V13.01,2013-06-30 11:47:00,
2013-06-30 06:52:00,55.2,47.5,29.09,WNW,297,0.0,0.0,75,0.00,,,0.00,VWS V13.01,2013-06-30 11:52:00,
2013-06-30 06:57:00,55.2,47.8,29.09,WNW,297,0.0,0.0,76,0.00,,,0.00,VWS V13.01,2013-06-30 11:57:00,
2013-06-30 07:02:00,55.4,48.0,29.09,WNW,297,0.0,0.0,76,0.00,,,0.00,VWS V13.01,2013-06-30 12:02:00,
2013-06-30 07:07:00,55.4,48.0,29.09,WNW,297,0.0,0.0,76,0.00,,,0.00,VWS V13.01,2013-06-30 12:07:00,
2013-06-30 07:12:00,55.4,48.0,29.09,WNW,297,0.0,0.0,76,0.00,,,0.00,VWS V13.01,2013-06-30 12:12:00,
2013-06-30 07:17:00,55.4,48.0,29.09,WNW,297,0.0,0.0,76,0.00,,,0.00,VWS V13.01,2013-06-30 12:17:00,
2013-06-30 07:22:00,55.8,48.3,29.09,WNW,297,0.0,0.0,76,0.00,,,0.00,VWS V13.01,2013-06-30 12:22:00,
2013-06-30 07:27:00,56.1,49.0,29.09,WNW,297,0.0,0.0,77,0.00,,,0.00,VWS V13.01,2013-06-30 12:27:00,
2013-06-30 07:32:00,56.7,50.2,29.09,WNW,297,0.0,0.0,79,0.00,,,0.00,VWS V13.01,2013-06-30 12:32:00,
2013-06-30 07:37:00,57.0,50.6,29.09,WNW,297,0.0,0.0,79,0.00,,,0.00,VWS V13.01,2013-06-30 12:37:00,
2013-06-30 07:42:00,57.6,51.1,29.12,WNW,297,0.0,0.0,79,0.00,,,0.00,VWS V13.01,2013-06-30 12:42:00,
2013-06-30 07:47:00,57.9,51.5,29.12,WNW,297,0.0,0.0,79,0.00,,,0.00,VWS V13.01,2013-06-30 12:47:00,
2013-06-30 07:52:00,58.5,52.0,29.12,WNW,291,0.0,0.0,79,0.00,,,0.00,VWS V13.01,2013-06-30 12:52:00,
2013-06-30 07:57:00,59.2,52.0,29.12,NNW,330,0.0,0.0,77,0.00,,,0.00,VWS V13.01,2013-06-30 12:57:00,
2013-06-30 08:02:00,59.7,52.2,29.12,WNW,301,0.0,0.0,76,0.00,,,0.00,VWS V13.01,2013-06-30 13:02:00,
2013-06-30 08:07:00,60.3,51.2,29.12,NW,326,0.0,0.0,72,0.00,,,0.00,VWS V13.01,2013-06-30 13:07:00,
2013-06-30 08:12:00,60.6,49.6,29.12,NW,324,0.0,3.1,67,0.00,,,0.00,VWS V13.01,2013-06-30 13:12:00,
2013-06-30 08:17:00,61.3,46.5,29.12,WNW,300,3.6,3.6,58,0.00,,,0.00,VWS V13.01,2013-06-30 13:17:00,
2013-06-30 08:22:00,62.2,44.9,29.12,WSW,256,2.2,2.7,53,0.00,,,0.00,VWS V13.01,2013-06-30 13:22:00,
2013-06-30 08:27:00,63.0,44.6,29.12,NW,305,0.0,0.0,51,0.00,,,0.00,VWS V13.01,2013-06-30 13:27:00,
2013-06-30 08:32:00,63.5,44.0,29.12,NW,311,0.0,0.0,49,0.00,,,0.00,VWS V13.01,2013-06-30 13:32:00,
2013-06-30 08:37:00,64.2,43.6,29.12,NE,48,0.0,0.0,47,0.00,,,0.00,VWS V13.01,2013-06-30 13:37:00,
2013-06-30 08:42:00,65.1,43.3,29.12,NNE,32,3.6,4.0,45,0.00,,,0.00,VWS V13.01,2013-06-30 13:42:00,
2013-06-30 08:47:00,65.8,42.7,29.12,West,259,0.0,3.1,43,0.00,,,0.00,VWS V13.01,2013-06-30 13:47:00,
2013-06-30 08:52:00,66.6,41.5,29.12,West,263,0.0,2.7,40,0.00,,,0.00,VWS V13.01,2013-06-30 13:52:00,
2013-06-30 08:57:00,67.3,42.2,29.12,West,277,2.7,3.6,40,0.00,,,0.00,VWS V13.01,2013-06-30 13:57:00,
2013-06-30 09:02:00,67.6,41.2,29.12,NE,52,2.2,2.2,38,0.00,,,0.00,VWS V13.01,2013-06-30 14:02:00,
2013-06-30 09:07:00,68.2,40.2,29.12,North,9,3.6,3.6,36,0.00,,,0.00,VWS V13.01,2013-06-30 14:07:00,
2013-06-30 09:12:00,68.5,39.1,29.12,NNE,27,0.0,2.7,34,0.00,,,0.00,VWS V13.01,2013-06-30 14:12:00,
2013-06-30 09:17:00,68.7,39.2,29.12,NNE,18,4.0,4.0,34,0.00,,,0.00,VWS V13.01,2013-06-30 14:17:00,
2013-06-30 09:22:00,69.3,39.7,29.12,NNW,328,2.7,4.0,34,0.00,,,0.00,VWS V13.01,2013-06-30 14:22:00,
2013-06-30 09:27:00,69.4,39.9,29.12,NNW,333,2.7,2.7,34,0.00,,,0.00,VWS V13.01,2013-06-30 14:27:00,
2013-06-30 09:32:00,69.8,39.4,29.12,NW,315,2.7,3.6,33,0.00,,,0.00,VWS V13.01,2013-06-30 14:32:00,
2013-06-30 09:37:00,70.2,39.7,29.12,NW,316,2.7,3.1,33,0.00,,,0.00,VWS V13.01,2013-06-30 14:37:00,
2013-06-30 09:42:00,70.5,40.1,29.12,ESE,116,3.6,3.6,33,0.00,,,0.00,VWS V13.01,2013-06-30 14:42:00,
2013-06-30 09:47:00,70.5,39.3,29.12,NW,312,2.7,3.6,32,0.00,,,0.00,VWS V13.01,2013-06-30 14:47:00,
2013-06-30 09:52:00,70.9,39.6,29.12,ESE,108,2.7,2.7,32,0.00,,,0.00,VWS V13.01,2013-06-30 14:52:00,
2013-06-30 09:57:00,71.1,39.7,29.12,NNE,25,5.8,5.8,32,0.00,,,0.00,VWS V13.01,2013-06-30 14:57:00,
2013-06-30 10:02:00,71.2,39.1,29.12,NW,318,0.0,2.7,31,0.00,,,0.00,VWS V13.01,2013-06-30 15:02:00,
2013-06-30 10:07:00,71.8,39.5,29.12,North,9,0.0,2.7,31,0.00,,,0.00,VWS V13.01,2013-06-30 15:07:00,
2013-06-30 10:12:00,72.3,40.0,29.12,NNE,17,3.6,3.6,31,0.00,,,0.00,VWS V13.01,2013-06-30 15:12:00,
2013-06-30 10:17:00,72.5,38.5,29.12,NNE,21,3.1,3.1,29,0.00,,,0.00,VWS V13.01,2013-06-30 15:17:00,
2013-06-30 10:22:00,72.7,37.7,29.12,North,357,4.0,4.0,28,0.00,,,0.00,VWS V13.01,2013-06-30 15:22:00,
2013-06-30 10:27:00,72.7,38.6,29.12,NNE,33,2.7,3.6,29,0.00,,,0.00,VWS V13.01,2013-06-30 15:27:00,
2013-06-30 10:32:00,72.9,37.0,29.12,NNW,335,4.9,5.8,27,0.00,,,0.00,VWS V13.01,2013-06-30 15:32:00,
2013-06-30 10:37:00,73.0,38.0,29.12,NW,320,2.2,2.7,28,0.00,,,0.00,VWS V13.01,2013-06-30 15:37:00,
2013-06-30 10:42:00,73.4,36.5,29.15,North,0,5.4,5.4,26,0.00,,,0.00,VWS V13.01,2013-06-30 15:42:00,
2013-06-30 10:47:00,73.8,37.7,29.15,WNW,303,4.0,5.4,27,0.00,,,0.00,VWS V13.01,2013-06-30 15:47:00,
2013-06-30 10:52:00,74.3,38.2,29.15,NNE,24,4.0,4.0,27,0.00,,,0.00,VWS V13.01,2013-06-30 15:52:00,
2013-06-30 10:57:00,74.7,36.5,29.15,North,8,3.1,5.8,25,0.00,,,0.00,VWS V13.01,2013-06-30 15:57:00,
2013-06-30 11:02:00,74.8,35.7,29.15,North,4,4.9,5.8,24,0.00,,,0.00,VWS V13.01,2013-06-30 16:02:00,
2013-06-30 11:07:00,75.0,35.8,29.15,NNE,26,4.0,5.4,24,0.00,,,0.00,VWS V13.01,2013-06-30 16:07:00,
2013-06-30 11:12:00,75.6,35.2,29.15,NNE,29,2.7,3.6,23,0.00,,,0.00,VWS V13.01,2013-06-30 16:12:00,
2013-06-30 11:17:00,76.1,36.7,29.15,East,97,0.0,3.6,24,0.00,,,0.00,VWS V13.01,2013-06-30 16:17:00,
2013-06-30 11:22:00,76.5,37.0,29.15,North,357,0.0,3.6,24,0.00,,,0.00,VWS V13.01,2013-06-30 16:22:00,
2013-06-30 11:27:00,76.5,34.8,29.15,North,0,3.6,3.6,22,0.00,,,0.00,VWS V13.01,2013-06-30 16:27:00,
2013-06-30 11:32:00,76.6,35.0,29.15,NNE,32,0.0,3.6,22,0.00,,,0.00,VWS V13.01,2013-06-30 16:32:00,
2013-06-30 11:37:00,76.8,35.1,29.15,NW,314,2.2,3.6,22,0.00,,,0.00,VWS V13.01,2013-06-30 16:37:00,
2013-06-30 11:42:00,77.0,34.1,29.15,North,353,0.0,3.6,21,0.00,,,0.00,VWS V13.01,2013-06-30 16:42:00,
2013-06-30 11:47:00,77.2,34.3,29.15,North,4,4.9,4.9,21,0.00,,,0.00,VWS V13.01,2013-06-30 16:47:00,
2013-06-30 11:52:00,77.2,34.3,29.15,NNW,338,2.7,3.1,21,0.00,,,0.00,VWS V13.01,2013-06-30 16:52:00,
2013-06-30 11:57:00,77.5,34.6,29.15,North,357,3.1,3.6,21,0.00,,,0.00,VWS V13.01,2013-06-30 16:57:00,
2013-06-30 12:02:00,77.7,34.7,29.15,East,95,5.8,5.8,21,0.00,,,0.00,VWS V13.01,2013-06-30 17:02:00,
2013-06-30 12:07:00,77.5,34.6,29.15,NNE,28,5.4,5.4,21,0.00,,,0.00,VWS V13.01,2013-06-30 17:07:00,
2013-06-30 12:12:00,77.5,34.6,29.15,North,353,3.6,3.6,21,0.00,,,0.00,VWS V13.01,2013-06-30 17:12:00,
2013-06-30 12:17:00,77.7,35.9,29.15,NNE,15,5.8,5.8,22,0.00,,,0.00,VWS V13.01,2013-06-30 17:17:00,
2013-06-30 12:22:00,78.1,35.0,29.15,NW,304,2.7,2.7,21,0.00,,,0.00,VWS V13.01,2013-06-30 17:22:00,
2013-06-30 12:27:00,78.1,35.0,29.15,NNE,32,0.0,2.2,21,0.00,,,0.00,VWS V13.01,2013-06-30 17:27:00,
2013-06-30 12:32:00,78.4,35.3,29.15,ENE,63,4.0,4.0,21,0.00,,,0.00,VWS V13.01,2013-06-30 17:32:00,
2013-06-30 12:37:00,78.4,35.3,29.15,North,357,3.6,5.8,21,0.00,,,0.00,VWS V13.01,2013-06-30 17:37:00,
2013-06-30 12:42:00,78.3,35.2,29.15,West,262,7.6,7.6,21,0.00,,,0.00,VWS V13.01,2013-06-30 17:42:00,
2013-06-30 12:47:00,78.6,35.5,29.15,NNW,328,2.7,2.7,21,0.00,,,0.00,VWS V13.01,2013-06-30 17:47:00,
2013-06-30 12:52:00,79.0,35.8,29.15,WNW,294,3.1,3.1,21,0.00,,,0.00,VWS V13.01,2013-06-30 17:52:00,
2013-06-30 12:57:00,79.0,35.8,29.15,West,260,2.2,2.2,21,0.00,,,0.00,VWS V13.01,2013-06-30 17:57:00,
2013-06-30 13:02:00,79.0,35.8,29.15,NNE,17,2.2,4.0,21,0.00,,,0.00,VWS V13.01,2013-06-30 18:02:00,
2013-06-30 13:07:00,79.0,35.8,29.15,North,357,3.1,4.9,21,0.00,,,0.00,VWS V13.01,2013-06-30 18:07:00,
2013-06-30 13:12:00,79.5,36.2,29.18,WNW,287,3.6,3.6,21,0.00,,,0.00,VWS V13.01,2013-06-30 18:12:00,
2013-06-30 13:17:00,79.5,36.2,29.18,WNW,295,5.8,5.8,21,0.00,,,0.00,VWS V13.01,2013-06-30 18:17:00,
2013-06-30 13:22:00,79.7,36.3,29.18,NW,317,4.9,7.2,21,0.00,,,0.00,VWS V13.01,2013-06-30 18:22:00,
2013-06-30 13:27:00,80.1,36.7,29.18,NNW,342,3.1,3.1,21,0.00,,,0.00,VWS V13.01,2013-06-30 18:27:00,
2013-06-30 13:32:00,80.4,37.0,29.18,NW,312,5.8,5.8,21,0.00,,,0.00,VWS V13.01,2013-06-30 18:32:00,
2013-06-30 13:37:00,80.4,37.0,29.18,NNE,19,3.1,7.6,21,0.00,,,0.00,VWS V13.01,2013-06-30 18:37:00,
2013-06-30 13:42:00,79.5,36.2,29.18,WNW,294,4.0,6.3,21,0.00,,,0.00,VWS V13.01,2013-06-30 18:42:00,
2013-06-30 13:47:00,79.9,36.5,29.18,North,353,3.1,4.0,21,0.00,,,0.00,VWS V13.01,2013-06-30 18:47:00,
2013-06-30 13:52:00,80.2,36.8,29.18,WNW,297,0.0,2.7,21,0.00,,,0.00,VWS V13.01,2013-06-30 18:52:00,
2013-06-30 13:57:00,80.6,35.9,29.18,North,353,3.6,4.9,20,0.00,,,0.00,VWS V13.01,2013-06-30 18:57:00,
2013-06-30 14:02:00,80.4,37.0,29.18,NNE,13,0.0,4.9,21,0.00,,,0.00,VWS V13.01,2013-06-30 19:02:00,
2013-06-30 14:07:00,80.4,37.0,29.18,North,0,3.6,4.0,21,0.00,,,0.00,VWS V13.01,2013-06-30 19:07:00,
2013-06-30 14:12:00,80.6,35.9,29.18,WSW,237,2.7,3.1,20,0.00,,,0.00,VWS V13.01,2013-06-30 19:12:00,
2013-06-30 14:17:00,81.1,36.3,29.18,NE,51,3.6,3.6,20,0.00,,,0.00,VWS V13.01,2013-06-30 19:17:00,
2013-06-30 14:22:00,81.1,36.3,29.18,NNE,24,5.8,5.8,20,0.00,,,0.00,VWS V13.01,2013-06-30 19:22:00,
2013-06-30 14:27:00,81.0,36.2,29.18,East,85,3.1,4.9,20,0.00,,,0.00,VWS V13.01,2013-06-30 19:27:00,
2013-06-30 14:32:00,81.3,36.5,29.18,North,6,2.7,4.0,20,0.00,,,0.00,VWS V13.01,2013-06-30 19:32:00,
2013-06-30 14:37:00,81.3,36.5,29.18,North,353,3.6,3.6,20,0.00,,,0.00,VWS V13.01,2013-06-30 19:37:00,
2013-06-30 14:42:00,81.7,36.8,29.18,NNE,19,3.1,6.3,20,0.00,,,0.00,VWS V13.01,2013-06-30 19:42:00,
2013-06-30 14:47:00,81.1,36.3,29.18,SSW,204,2.7,2.7,20,0.00,,,0.00,VWS V13.01,2013-06-30 19:47:00,
2013-06-30 14:52:00,80.4,35.7,29.18,NW,322,3.1,4.9,20,0.00,,,0.00,VWS V13.01,2013-06-30 19:52:00,
2013-06-30 14:57:00,81.0,36.2,29.18,North,1,3.6,6.3,20,0.00,,,0.00,VWS V13.01,2013-06-30 19:57:00,
2013-06-30 15:02:00,81.7,36.8,29.18,NE,36,2.7,6.3,20,0.00,,,0.00,VWS V13.01,2013-06-30 20:02:00,
2013-06-30 15:07:00,81.9,36.9,29.18,North,9,4.0,5.4,20,0.00,,,0.00,VWS V13.01,2013-06-30 20:07:00,
2013-06-30 15:12:00,82.4,36.0,29.18,North,10,3.1,4.0,19,0.00,,,0.00,VWS V13.01,2013-06-30 20:12:00,
2013-06-30 15:17:00,82.6,36.2,29.18,North,5,3.6,5.8,19,0.00,,,0.00,VWS V13.01,2013-06-30 20:17:00,
2013-06-30 15:22:00,82.9,36.5,29.18,WSW,245,0.0,4.0,19,0.00,,,0.00,VWS V13.01,2013-06-30 20:22:00,
2013-06-30 15:27:00,82.6,36.2,29.18,NE,51,4.0,4.0,19,0.00,,,0.00,VWS V13.01,2013-06-30 20:27:00,
2013-06-30 15:32:00,81.9,36.9,29.18,NE,55,0.0,4.9,20,0.00,,,0.00,VWS V13.01,2013-06-30 20:32:00,
2013-06-30 15:37:00,81.9,36.9,29.18,NNW,328,2.7,2.7,20,0.00,,,0.00,VWS V13.01,2013-06-30 20:37:00,
2013-06-30 15:42:00,82.0,37.0,29.18,NNW,333,2.2,3.6,20,0.00,,,0.00,VWS V13.01,2013-06-30 20:42:00,
2013-06-30 15:47:00,82.0,37.0,29.18,NNE,16,3.6,3.6,20,0.00,,,0.00,VWS V13.01,2013-06-30 20:47:00,
2013-06-30 15:52:00,82.2,37.2,29.18,NNW,345,2.7,2.7,20,0.00,,,0.00,VWS V13.01,2013-06-30 20:52:00,
2013-06-30 15:57:00,82.6,36.2,29.18,North,0,2.2,2.2,19,0.00,,,0.00,VWS V13.01,2013-06-30 20:57:00,
2013-06-30 16:02:00,82.9,36.5,29.18,North,2,5.4,5.4,19,0.00,,,0.00,VWS V13.01,2013-06-30 21:02:00,
2013-06-30 16:07:00,83.5,36.9,29.18,North,0,2.2,2.2,19,0.00,,,0.00,VWS V13.01,2013-06-30 21:07:00,
2013-06-30 16:12:00,84.0,37.4,29.18,WSW,244,5.8,5.8,19,0.00,,,0.00,VWS V13.01,2013-06-30 21:12:00,
2013-06-30 16:17:00,83.5,36.9,29.18,North,4,0.0,2.2,19,0.00,,,0.00,VWS V13.01,2013-06-30 21:17:00,
2013-06-30 16:22:00,83.1,36.6,29.18,North,357,4.0,5.4,19,0.00,,,0.00,VWS V13.01,2013-06-30 21:22:00,
2013-06-30 16:27:00,83.3,36.8,29.18,North,0,5.4,5.4,19,0.00,,,0.00,VWS V13.01,2013-06-30 21:27:00,
2013-06-30 16:32:00,82.9,36.5,29.18,NE,51,2.2,3.6,19,0.00,,,0.00,VWS V13.01,2013-06-30 21:32:00,
2013-06-30 16:37:00,82.8,36.3,29.18,NE,44,3.1,3.1,19,0.00,,,0.00,VWS V13.01,2013-06-30 21:37:00,
2013-06-30 16:42:00,82.0,35.8,29.18,NNE,16,2.2,3.1,19,0.00,,,0.00,VWS V13.01,2013-06-30 21:42:00,
2013-06-30 16:47:00,81.3,35.2,29.18,North,6,3.1,3.1,19,0.00,,,0.00,VWS V13.01,2013-06-30 21:47:00,
2013-06-30 16:52:00,81.7,35.5,29.18,NE,55,0.0,2.7,19,0.00,,,0.00,VWS V13.01,2013-06-30 21:52:00,
2013-06-30 16:57:00,82.4,36.0,29.18,NNE,25,0.0,0.0,19,0.00,,,0.00,VWS V13.01,2013-06-30 21:57:00,
2013-06-30 17:02:00,82.6,36.2,29.18,NE,40,2.7,4.0,19,0.00,,,0.00,VWS V13.01,2013-06-30 22:02:00,
2013-06-30 17:07:00,82.9,36.5,29.18,East,98,0.0,3.6,19,0.00,,,0.00,VWS V13.01,2013-06-30 22:07:00,
2013-06-30 17:12:00,82.9,36.5,29.18,NNE,30,0.0,0.0,19,0.00,,,0.00,VWS V13.01,2013-06-30 22:12:00,
2013-06-30 17:17:00,82.8,36.3,29.18,North,9,3.6,5.8,19,0.00,,,0.00,VWS V13.01,2013-06-30 22:17:00,
2013-06-30 17:22:00,82.8,36.3,29.18,NE,50,0.0,3.1,19,0.00,,,0.00,VWS V13.01,2013-06-30 22:22:00,
2013-06-30 17:27:00,82.6,36.2,29.21,West,266,2.7,4.0,19,0.00,,,0.00,VWS V13.01,2013-06-30 22:27:00,
2013-06-30 17:32:00,82.9,36.5,29.21,WSW,254,0.0,2.7,19,0.00,,,0.00,VWS V13.01,2013-06-30 22:32:00,
2013-06-30 17:37:00,82.9,36.5,29.21,NE,36,0.0,0.0,19,0.00,,,0.00,VWS V13.01,2013-06-30 22:37:00,
2013-06-30 17:42:00,83.3,36.8,29.21,ENE,59,0.0,5.8,19,0.00,,,0.00,VWS V13.01,2013-06-30 22:42:00,
2013-06-30 17:47:00,83.1,36.6,29.21,North,349,0.0,0.0,19,0.00,,,0.00,VWS V13.01,2013-06-30 22:47:00,
2013-06-30 17:52:00,83.3,36.8,29.21,North,357,2.7,4.0,19,0.00,,,0.00,VWS V13.01,2013-06-30 22:52:00,
2013-06-30 17:57:00,83.3,36.8,29.21,North,8,3.1,3.6,19,0.00,,,0.00,VWS V13.01,2013-06-30 22:57:00,
2013-06-30 18:02:00,83.3,36.8,29.21,NNW,340,2.7,4.9,19,0.00,,,0.00,VWS V13.01,2013-06-30 23:02:00,
2013-06-30 18:07:00,82.9,36.5,29.21,NNE,30,3.1,3.1,19,0.00,,,0.00,VWS V13.01,2013-06-30 23:07:00,
2013-06-30 18:12:00,82.6,36.2,29.21,NNW,335,0.0,0.0,19,0.00,,,0.00,VWS V13.01,2013-06-30 23:12:00,
2013-06-30 18:17:00,82.4,36.0,29.21,North,353,0.0,0.0,19,0.00,,,0.00,VWS V13.01,2013-06-30 23:17:00,
2013-06-30 18:22:00,82.6,36.2,29.21,NNW,345,3.1,3.1,19,0.00,,,0.00,VWS V13.01,2013-06-30 23:22:00,
2013-06-30 18:27:00,82.2,35.9,29.21,NNW,337,3.6,3.6,19,0.00,,,0.00,VWS V13.01,2013-06-30 23:27:00,
2013-06-30 18:32:00,81.1,35.0,29.21,NW,307,3.1,4.0,19,0.00,,,0.00,VWS V13.01,2013-06-30 23:32:00,
2013-06-30 18:37:00,80.8,34.7,29.21,North,357,0.0,0.0,19,0.00,,,0.00,VWS V13.01,2013-06-30 23:37:00,
2013-06-30 18:42:00,80.8,34.7,29.21,NNE,14,0.0,2.2,19,0.00,,,0.00,VWS V13.01,2013-06-30 23:42:00,
2013-06-30 18:47:00,81.0,34.9,29.21,NNW,334,0.0,0.0,19,0.00,,,0.00,VWS V13.01,2013-06-30 23:47:00,
2013-06-30 18:52:00,80.8,34.7,29.21,NE,44,0.0,2.7,19,0.00,,,0.00,VWS V13.01,2013-06-30 23:52:00,
2013-06-30 18:57:00,80.8,36.0,29.23,North,0,4.0,4.0,20,0.00,,,0.00,VWS V13.01,2013-06-30 23:57:00,
2013-06-30 19:02:00,80.8,34.7,29.23,North,357,0.0,3.6,19,0.00,,,0.00,VWS V13.01,2013-07-01 00:02:00,
2013-06-30 19:07:00,80.4,35.7,29.23,NNW,329,0.0,0.0,20,0.00,,,0.00,VWS V13.01,2013-07-01 00:07:00,
2013-06-30 19:12:00,80.2,35.6,29.23,North,9,0.0,0.0,20,0.00,,,0.00,VWS V13.01,2013-07-01 00:12:00,
2013-06-30 19:17:00,79.7,35.1,29.23,NNE,30,0.0,0.0,20,0.00,,,0.00,VWS V13.01,2013-07-01 00:17:00,
2013-06-30 19:22:00,78.8,34.4,29.23,NNW,346,0.0,0.0,20,0.00,,,0.00,VWS V13.01,2013-07-01 00:22:00,
2013-06-30 19:27:00,77.5,33.3,29.23,NNE,28,2.2,3.1,20,0.00,,,0.00,VWS V13.01,2013-07-01 00:27:00,
2013-06-30 19:32:00,76.6,33.8,29.23,NNE,13,0.0,0.0,21,0.00,,,0.00,VWS V13.01,2013-07-01 00:32:00,
2013-06-30 19:37:00,75.7,33.1,29.23,NW,313,0.0,0.0,21,0.00,,,0.00,VWS V13.01,2013-07-01 00:37:00,
2013-06-30 19:42:00,75.2,32.6,29.23,NW,313,0.0,0.0,21,0.00,,,0.00,VWS V13.01,2013-07-01 00:42:00,
2013-06-30 19:47:00,74.8,33.5,29.23,NW,313,0.0,0.0,22,0.00,,,0.00,VWS V13.01,2013-07-01 00:47:00,
2013-06-30 19:53:00,74.1,32.9,29.23,NW,313,0.0,0.0,22,0.00,,,0.00,VWS V13.01,2013-07-01 00:53:00,
2013-06-30 19:58:00,73.8,33.7,29.21,NW,313,0.0,0.0,23,0.00,,,0.00,VWS V13.01,2013-07-01 00:58:00,
2013-06-30 20:03:00,73.4,33.4,29.21,NW,313,0.0,0.0,23,0.00,,,0.00,VWS V13.01,2013-07-01 01:03:00,
2013-06-30 20:07:00,72.9,34.0,29.21,NW,313,0.0,0.0,24,0.00,,,0.00,VWS V13.01,2013-07-01 01:07:00,
2013-06-30 20:13:00,72.5,33.7,29.21,NW,313,0.0,0.0,24,0.00,,,0.00,VWS V13.01,2013-07-01 01:13:00,
2013-06-30 20:17:00,72.1,34.4,29.21,NW,313,0.0,0.0,25,0.00,,,0.00,VWS V13.01,2013-07-01 01:17:00,
2013-06-30 20:23:00,72.0,34.2,29.21,NW,313,0.0,0.0,25,0.00,,,0.00,VWS V13.01,2013-07-01 01:23:00,
2013-06-30 20:28:00,71.6,34.0,29.21,NW,313,0.0,0.0,25,0.00,,,0.00,VWS V13.01,2013-07-01 01:28:00,
2013-06-30 20:32:00,71.4,34.8,29.21,NW,313,0.0,0.0,26,0.00,,,0.00,VWS V13.01,2013-07-01 01:32:00,
2013-06-30 20:37:00,71.1,35.4,29.21,NW,313,0.0,0.0,27,0.00,,,0.00,VWS V13.01,2013-07-01 01:37:00,
2013-06-30 20:42:00,70.7,35.1,29.21,NW,313,0.0,0.0,27,0.00,,,0.00,VWS V13.01,2013-07-01 01:42:00,
2013-06-30 20:47:00,70.5,35.0,29.21,NW,313,0.0,0.0,27,0.00,,,0.00,VWS V13.01,2013-07-01 01:47:00,
2013-06-30 20:52:00,70.3,35.7,29.21,NW,313,0.0,0.0,28,0.00,,,0.00,VWS V13.01,2013-07-01 01:52:00,
2013-06-30 20:57:00,70.0,36.3,29.21,NW,313,0.0,0.0,29,0.00,,,0.00,VWS V13.01,2013-07-01 01:57:00,
2013-06-30 21:03:00,69.8,36.1,29.21,NW,313,0.0,0.0,29,0.00,,,0.00,VWS V13.01,2013-07-01 02:03:00,
2013-06-30 21:08:00,69.6,36.8,29.21,NW,313,0.0,0.0,30,0.00,,,0.00,VWS V13.01,2013-07-01 02:08:00,
2013-06-30 21:13:00,69.3,37.4,29.18,NW,313,0.0,0.0,31,0.00,,,0.00,VWS V13.01,2013-07-01 02:13:00,
2013-06-30 21:18:00,69.1,38.0,29.18,NW,313,0.0,0.0,32,0.00,,,0.00,VWS V13.01,2013-07-01 02:18:00,
2013-06-30 21:23:00,68.7,37.7,29.18,NW,313,0.0,0.0,32,0.00,,,0.00,VWS V13.01,2013-07-01 02:23:00,
2013-06-30 21:28:00,68.5,37.5,29.18,NW,313,0.0,0.0,32,0.00,,,0.00,VWS V13.01,2013-07-01 02:28:00,
2013-06-30 21:33:00,68.2,38.0,29.18,NW,313,0.0,0.0,33,0.00,,,0.00,VWS V13.01,2013-07-01 02:33:00,
2013-06-30 21:38:00,68.0,37.8,29.18,NW,313,0.0,0.0,33,0.00,,,0.00,VWS V13.01,2013-07-01 02:38:00,
2013-06-30 21:43:00,67.8,37.7,29.18,NW,313,0.0,0.0,33,0.00,,,0.00,VWS V13.01,2013-07-01 02:43:00,
2013-06-30 21:48:00,67.5,38.1,29.18,NW,313,0.0,0.0,34,0.00,,,0.00,VWS V13.01,2013-07-01 02:48:00,
2013-06-30 21:53:00,67.3,38.0,29.18,NW,313,0.0,0.0,34,0.00,,,0.00,VWS V13.01,2013-07-01 02:53:00,
2013-06-30 21:58:00,67.1,37.8,29.18,NW,313,0.0,0.0,34,0.00,,,0.00,VWS V13.01,2013-07-01 02:58:00,
2013-06-30 22:03:00,67.1,37.8,29.18,NW,313,0.0,0.0,34,0.00,,,0.00,VWS V13.01,2013-07-01 03:03:00,
2013-06-30 22:08:00,66.9,37.7,29.18,NW,313,0.0,0.0,34,0.00,,,0.00,VWS V13.01,2013-07-01 03:08:00,
2013-06-30 22:13:00,66.7,38.2,29.18,NW,313,0.0,0.0,35,0.00,,,0.00,VWS V13.01,2013-07-01 03:13:00,
2013-06-30 22:18:00,66.6,38.1,29.18,NW,313,0.0,0.0,35,0.00,,,0.00,VWS V13.01,2013-07-01 03:18:00,
2013-06-30 22:23:00,66.6,38.1,29.18,NW,313,0.0,0.0,35,0.00,,,0.00,VWS V13.01,2013-07-01 03:23:00,
2013-06-30 22:28:00,66.4,37.9,29.18,NW,313,0.0,0.0,35,0.00,,,0.00,VWS V13.01,2013-07-01 03:28:00,
2013-06-30 22:33:00,66.2,38.5,29.18,NW,313,0.0,0.0,36,0.00,,,0.00,VWS V13.01,2013-07-01 03:33:00,
2013-06-30 22:38:00,65.8,38.2,29.18,NW,313,0.0,0.0,36,0.00,,,0.00,VWS V13.01,2013-07-01 03:38:00,
2013-06-30 22:43:00,65.7,38.7,29.18,NW,313,0.0,0.0,37,0.00,,,0.00,VWS V13.01,2013-07-01 03:43:00,
2013-06-30 22:48:00,65.7,38.7,29.18,NW,313,0.0,0.0,37,0.00,,,0.00,VWS V13.01,2013-07-01 03:48:00,
2013-06-30 22:53:00,65.5,38.5,29.18,NW,313,0.0,0.0,37,0.00,,,0.00,VWS V13.01,2013-07-01 03:53:00,
2013-06-30 22:58:00,65.3,39.1,29.18,NW,313,0.0,0.0,38,0.00,,,0.00,VWS V13.01,2013-07-01 03:58:00,
2013-06-30 23:01:00,65.1,38.9,29.18,NW,313,0.0,0.0,38,0.00,,,0.00,VWS V13.01,2013-07-01 04:01:00,
2013-06-30 23:06:00,65.1,38.9,29.18,NW,313,0.0,0.0,38,0.00,,,0.00,VWS V13.01,2013-07-01 04:06:00,
2013-06-30 23:11:00,65.1,39.6,29.18,NW,313,0.0,0.0,39,0.00,,,0.00,VWS V13.01,2013-07-01 04:11:00,
2013-06-30 23:16:00,64.9,40.1,29.18,NW,313,0.0,0.0,40,0.00,,,0.00,VWS V13.01,2013-07-01 04:16:00,
2013-06-30 23:21:00,64.8,39.9,29.18,NW,313,0.0,0.0,40,0.00,,,0.00,VWS V13.01,2013-07-01 04:21:00,
2013-06-30 23:26:00,64.6,40.4,29.18,NW,313,0.0,0.0,41,0.00,,,0.00,VWS V13.01,2013-07-01 04:26:00,
2013-06-30 23:31:00,64.2,40.7,29.18,NW,313,0.0,0.0,42,0.00,,,0.00,VWS V13.01,2013-07-01 04:31:00,
2013-06-30 23:36:00,64.0,41.1,29.18,NW,313,0.0,0.0,43,0.00,,,0.00,VWS V13.01,2013-07-01 04:36:00,
2013-06-30 23:41:00,64.0,41.1,29.18,NW,313,0.0,0.0,43,0.00,,,0.00,VWS V13.01,2013-07-01 04:41:00,
2013-06-30 23:46:00,64.0,41.7,29.18,NW,313,0.0,0.0,44,0.00,,,0.00,VWS V13.01,2013-07-01 04:46:00,
2013-06-30 23:51:00,63.9,41.5,29.18,NW,313,0.0,0.0,44,0.00,,,0.00,VWS V13.01,2013-07-01 04:51:00,
2013-06-30 23:56:00,63.9,41.5,29.18,NW,313,0.0,0.0,44,0.00,,,0.00,VWS V13.01,2013-07-01 04:56:00,